KC4YVV-22 Weather Reports


Display with metric or nautical units.
time (UTC)temp
F
wind
direction
speed
MPH
gust
MPH
rain 1hr
in
rain 24hr
in
rain mn
in
humidity
%
barometer
mb
20260505153039 71 288 1.0 5.0 0.00 0.00 0.00 52 1015.6
20260505151535 71 277 0.0 4.0 0.00 0.00 0.00 55 1015.9
20260505124532 56 0 0.0 0.0 0.00 0.00 0.00 77 1015.7
20260505123032 54 0 0.0 0.0 0.00 0.00 0.00 73 1015.6
20260505121532 52 0 0.0 0.0 0.00 0.00 0.00 72 1015.5
20260505120038 51 0 0.0 0.0 0.00 0.00 0.00 73 1015.3
20260505114535 50 0 0.0 0.0 0.00 0.00 0.00 74 1015.2
20260505113032 49 0 0.0 0.0 0.00 0.00 0.00 75 1014.9
20260505111534 49 0 0.0 0.0 0.00 0.00 0.00 76 1014.7
20260505101529 49 0 0.0 0.0 0.00 0.00 0.00 78 1014.7
20260505100032 49 0 0.0 0.0 0.00 0.00 0.00 78 1014.8
20260505094531 49 0 0.0 0.0 0.00 0.00 0.00 79 1014.5
20260505093032 49 0 0.0 0.0 0.00 0.00 0.00 79 1014.5
20260505091530 49 0 0.0 0.0 0.00 0.00 0.00 80 1014.5
20260505090036 49 0 0.0 0.0 0.00 0.00 0.00 80 1014.5
20260505084543 50 0 0.0 0.0 0.00 0.00 0.00 80 1014.4
20260505083032 50 0 0.0 0.0 0.00 0.00 0.00 81 1014.5
20260505081532 50 0 0.0 0.0 0.00 0.00 0.00 81 1014.4
20260505080037 50 0 0.0 0.0 0.00 0.00 0.00 81 1014.4
20260505074535 51 0 0.0 0.0 0.00 0.00 0.00 82 1014.4
20260505073041 51 0 0.0 0.0 0.00 0.00 0.00 82 1014.5
20260505071530 51 0 0.0 0.0 0.00 0.00 0.00 82 1014.6
20260505070040 52 0 0.0 0.0 0.00 0.00 0.00 82 1014.7
20260505064534 52 0 0.0 0.0 0.00 0.00 0.00 82 1014.7
20260505063032 52 0 0.0 0.0 0.00 0.00 0.00 83 1014.6
20260505061540 52 0 0.0 0.0 0.00 0.00 0.00 83 1014.7
20260505060035 53 0 0.0 0.0 0.00 0.00 0.00 83 1014.6
20260505054538 53 0 0.0 0.0 0.00 0.00 0.00 83 1014.6
20260505053032 53 0 0.0 0.0 0.00 0.00 0.00 83 1014.4
20260505051531 53 0 0.0 0.0 0.00 0.00 0.00 83 1014.3
20260505041549 54 0 0.0 0.0 0.00 0.00 0.00 83 1014.3
20260505040040 54 0 0.0 0.0 0.00 0.00 0.00 83 1014.3
20260505034532 55 0 0.0 0.0 0.00 0.00 0.00 83 1014.2
20260505033034 55 0 0.0 0.0 0.00 0.00 0.00 82 1014.3
20260505031539 55 0 0.0 0.0 0.00 0.00 0.00 82 1014.4
20260505030032 56 0 0.0 0.0 0.00 0.00 0.00 82 1014.4
20260505024533 56 0 0.0 0.0 0.00 0.00 0.00 81 1014.5
20260505023031 57 0 0.0 0.0 0.00 0.00 0.00 80 1014.5
20260505021534 58 0 0.0 0.0 0.00 0.00 0.00 79 1014.4
20260505020031 59 0 0.0 0.0 0.00 0.00 0.00 77 1014.5
20260505014546 59 0 0.0 0.0 0.00 0.00 0.00 76 1014.3
20260505013033 61 0 0.0 0.0 0.00 0.00 0.00 75 1014.2
20260505011530 62 0 0.0 0.0 0.00 0.00 0.00 72 1014.0
20260505010031 64 0 0.0 0.0 0.00 0.00 0.00 69 1013.9
20260505004537 65 0 0.0 0.0 0.00 0.00 0.00 66 1013.6
20260505003031 67 0 0.0 0.0 0.00 0.00 0.00 63 1013.6
20260505001534 69 0 0.0 0.0 0.00 0.00 0.00 59 1013.4
20260505000044 71 0 0.0 0.0 0.00 0.00 0.00 55 1013.3
20260504234535 73 0 0.0 0.0 0.00 0.00 0.00 48 1013.3
20260504233043 74 0 0.0 5.0 0.00 0.00 0.00 45 1013.2
20260504231532 75 252 2.0 7.0 0.00 0.00 0.00 42 1013.1
20260504230035 75 0 0.0 6.0 0.00 0.00 0.00 42 1013.1
20260504224536 76 0 0.0 6.0 0.00 0.00 0.00 41 1013.1
20260504223053 77 281 3.0 6.0 0.00 0.00 0.00 39 1013.1
20260504221537 78 233 1.0 9.0 0.00 0.00 0.00 40 1013.1
20260504220036 78 237 3.0 9.0 0.00 0.00 0.00 40 1013.0
20260504214533 78 239 2.0 6.0 0.00 0.00 0.00 40 1013.1
20260504213049 77 258 2.0 10.0 0.00 0.00 0.00 43 1013.1
20260504211536 77 248 3.0 8.0 0.00 0.00 0.00 43 1013.1
20260504210039 76 267 5.0 8.0 0.00 0.00 0.00 43 1013.4
20260504204543 77 269 3.0 7.0 0.00 0.00 0.00 42 1013.6
20260504203035 77 248 5.0 8.0 0.00 0.00 0.00 43 1013.7
20260504201533 77 264 1.0 5.0 0.00 0.00 0.00 43 1013.8
20260504200036 76 0 3.0 9.0 0.00 0.00 0.00 44 1014.1
20260504194536 76 250 2.0 8.0 0.00 0.00 0.00 44 1014.3
20260504193030 76 0 3.0 7.0 0.00 0.00 0.00 45 1014.5
20260504191530 76 255 4.0 12.0 0.00 0.00 0.00 43 1014.6
20260504190035 76 250 3.0 7.0 0.00 0.00 0.00 44 1014.8
20260504184531 76 222 2.0 7.0 0.00 0.00 0.00 44 1015.1
20260504183032 76 243 2.0 5.0 0.00 0.00 0.00 44 1015.3
20260504181542 76 254 2.0 6.0 0.00 0.00 0.00 43 1015.4
20260504180031 75 288 2.0 5.0 0.00 0.00 0.00 45 1015.5
20260504174534 75 0 2.0 7.0 0.00 0.00 0.00 47 1015.5
20260504173030 74 59 2.0 5.0 0.00 0.00 0.00 46 1015.7
20260504171530 73 235 0.0 7.0 0.00 0.00 0.00 48 1016.0